Location: *
(45.9500°N, 9.0833°E)
Time: 20:00:29
(UTC+00:00)

Tiros 1 - Pass Details

Date: 16 June 2021
Orbit: 630 x 664 km, 48.4° (Epoch: 05 August)

Event Time Altitude Azimuth Distance (km) Brightness Sun altitude
Rises 11:11:01 0° 233° (SW) 2,919 10.7 67.3°
Reaches altitude 10° 11:13:21 10° 229° (SW) 2,018 10.0 67.3°
Maximum altitude 11:17:53 56° 152° (SSE) 764 9.5 67.4°
Drops below altitude 10° 11:22:30 10° 74° (ENE) 2,047 9.8 67.4°
Sets 11:24:53 0° 71° (ENE) 2,966 10.5 67.4°
